Regional Weather Roundup
Issued by NWS New Orleans/Baton Rouge, LA

Home | Current Version | Previous Version | Graphics & Text | Print | Product List | Glossary On
Versions: 1 2 3 4 5 6 7 8 9 10 11 12 13 14 15 16 17 18 19 20 21 22 23 24 25 26 27 28 29 30 31 32 33 34 35 36 37 38 39 40 41 42 43 44 45 46 47 48 49 50
582
ASUS44 KLIX 281501
RWRLIX
NEW ORLEANS REGIONAL WEATHER ROUNDUP
NATIONAL WEATHER SERVICE NEW ORLEANS LA
900 AM CST SAT FEB 28 2015

NOTE: "FAIR" INDICATES FEW OR NO CLOUDS BELOW 12,000 FEET WITH NO
      SIGNIFICANT WEATHER AND/OR OBSTRUCTIONS TO VISIBILITY.
      SKY/WX - SKY CONDITION AND SIGNIFICANT WEATHER.
      TMP - AIR TEMPERATURE.     DP    - DEWPOINT TEMPERATURE.
      RH  - RELATIVE HUMIDITY.   PRES  - PRESSURE.
      HI  - HEAT INDEX.          WCI   - WIND CHILL INDEX.

*  THESE STATIONS ARE NOT NWS OR FAA STATIONS AND ARE NOT UNDER
   NWS QUALITY CONTROL.

LAZ038-040-048-061>063-065>067-069-281600-
SOUTHEAST LOUISIANA

CITY           SKY/WX    TMP DP  RH WIND       PRES   REMARKS
N.O. AUDUBON     N/A     48  33  55 MISG        N/A
N.O. INTL ARPT PTSUNNY   45  31  58 NE15      30.42R
N.O. LAKEFRONT MOSUNNY   47  32  56 E15       30.43R
SLIDELL        SUNNY     47  31  53 NE8       30.42F
BATON ROUGE    SUNNY     46  29  51 E12       30.40F
BOOTHVILLE     CLOUDY    50  43  77 NE14G22   30.40R
BELLE CHASSE   PTSUNNY   46  32  58 NE16      30.41R
BOGALUSA*        N/A     45  28  50 NE3       30.46S
GALLIANO*      CLOUDY    49  38  66 MISG      30.40S
NEW ROADS*     CLOUDY    46  27  47 E9        30.41S
GONZALES*      NOT AVBL
HAMMOND*       NOT AVBL
HOUMA*         NOT AVBL
PORT FOURCHON* PTSUNNY   48  41  76 NE21      30.41R

$$

MSZ070-080>082-281600-
SOUTHERN MISSISSIPPI

CITY           SKY/WX    TMP DP  RH WIND       PRES   REMARKS
MCCOMB         MOSUNNY   43  25  49 VRB6      30.42R
GULFPORT       SUNNY     45  28  51 NE9       30.43S
BILOXI         MOSUNNY   44  29  53 NE8       30.43S
PASCAGOULA     MOSUNNY   44  30  57 NE7       30.44S
STENNIS ARPT*  SUNNY     45  25  45 NE8       30.44S

$$

COASTAL OBSERVATIONS
LAKE AND NEARSHORE STATIONS

STATION/POSITION TIME  TEMP    WIND        PRES    WAVE
                       AIR SEA DIR/SP/G            HT/PER
                 (UTC) (F)     (DEG/KT/KT) (MB)    (FT/S)
PASCAGOULA       1400   42      30/ 10/ 12 1030.2
WAVELAND YACHT   1400   41 46   50/ 13/ 14 1030.3
GRAND ISLE       1400   47 51   60/ 17/ 21 1028.9
SOUTHWEST PASS   1400   53 46   30/ 13/ 14 1028.2
NEW CANAL        1400   42      70/ 18/ 19 1030.0
SHELL BEACH      1400   44 49   50/ 18/ 19 1030.0

OFFSHORE STATIONS

STATION/POSITION TIME  TEMP    WIND        PRES    WAVE
                       AIR SEA DIR/SP/G            HT/PER
                 (UTC) (F)     (DEG/KT/KT) (MB)    (FT/S)
64 S DAUPHIN ISL 1412   60 70   70/ 17/ 21 1028.6    7/ 7

$$




USA.gov is the U.S. government's official web portal to all federal, state and local government web resources and services.